Weather reports worldwide

Advertisment
Catania/Fontanarossa, Italy (16460): temperature & dewpoint: 11.09.2019 13:00:00 - 17.09.2019 13:00:00 (CEST)Catania/Fontanarossa, Italy (16460): wind speed: 11.09.2019 13:00:00 - 17.09.2019 13:00:00 (CEST)Catania/Fontanarossa, Italy (16460): wind direction: 11.09.2019 13:00:00 - 17.09.2019 13:00:00 (CEST)Catania/Fontanarossa, Italy (16460): reduced air pressure: 11.09.2019 13:00:00 - 17.09.2019 13:00:00 (CEST)Catania/Fontanarossa, Italy (16460): visibility: 11.09.2019 13:00:00 - 17.09.2019 13:00:00 (CEST)Catania/Fontanarossa, Italy (16460): precipitation: 11.09.2019 13:00:00 - 17.09.2019 13:00:00 (CEST)
Date & Time tt [°C] td [°C] ff [km/h] ff [kn] dd ppp [hPa] vv [km] rr [mm]
17.09.2019 13:00:00 28,0 19,0 18 10 ESE - 10 -
17.09.2019 12:00:00 29,0 15,0 8 4 S - 10 -
17.09.2019 11:00:00 28,5 15,4 5 3 - 1017,7 10 0,0
17.09.2019 10:00:00 26,0 16,0 15 8 WSW - 10 -
17.09.2019 09:00:00 23,0 17,0 9 5 SW - 10 -
17.09.2019 08:00:00 20,9 16,9 8 4 WSW 1017,3 10 -
17.09.2019 07:00:00 18,0 17,0 9 5 WSW - 10 -
17.09.2019 06:00:00 - - - - - - - -
17.09.2019 05:00:00 18,9 16,6 4 2 SW 1016,9 - 0,0
17.09.2019 04:00:00 - - - - - - - -
17.09.2019 03:00:00 20,0 18,0 8 4 WSW - 10 -
17.09.2019 02:00:00 20,4 17,9 9 5 WSW 1017,8 10 -
17.09.2019 01:00:00 22,0 18,0 11 6 W - 10 -
17.09.2019 00:00:00 24,0 17,0 13 7 WNW - 10 -
16.09.2019 23:00:00 23,9 18,1 11 6 W 1018,2 10 0,0
16.09.2019 22:00:00 25,0 21,0 5 3 ENE - 10 -
16.09.2019 21:00:00 26,0 21,0 9 5 E - 10 -
16.09.2019 20:00:00 26,0 19,0 11 6 ESE 1017,6 10 -
16.09.2019 19:00:00 26,0 20,0 16 9 E - 10 -
16.09.2019 18:00:00 27,0 18,0 16 9 E - 10 -
16.09.2019 17:00:00 28,2 16,7 18 10 ESE 1017,7 10 0,0
16.09.2019 16:00:00 29,0 16,0 18 10 ESE - 10 -
16.09.2019 15:00:00 28,0 16,0 18 10 ESE - 10 -
16.09.2019 14:00:00 28,2 16,1 18 10 E 1018,9 10 -
16.09.2019 13:00:00 29,0 16,0 16 9 E - 10 -
16.09.2019 12:00:00 28,0 16,0 15 8 E - 10 -
16.09.2019 11:00:00 27,9 16,0 13 7 E 1020,3 10 0,0
16.09.2019 10:00:00 26,0 15,0 4 2 - - 10 -
16.09.2019 09:00:00 22,0 14,0 8 4 WSW - 10 -
16.09.2019 08:00:00 19,2 13,9 9 5 SW 1020,0 10 -
16.09.2019 07:00:00 17,0 13,0 9 5 WSW - 10 -
16.09.2019 06:00:00 18,0 13,0 11 6 WSW - 10 -
16.09.2019 05:00:00 16,8 13,6 9 5 W 1019,6 10 0,0
16.09.2019 04:00:00 17,0 14,0 9 5 WSW - 10 -
16.09.2019 03:00:00 18,0 15,0 4 2 WSW - 10 -
16.09.2019 02:00:00 20,0 14,7 8 4 SSW 1020,7 10 -
16.09.2019 01:00:00 21,0 14,0 9 5 W - 10 -
16.09.2019 00:00:00 21,0 16,0 9 5 WSW - 10 -
15.09.2019 23:00:00 23,3 15,7 5 3 N 1021,5 10 0,0
15.09.2019 22:00:00 26,0 16,0 8 4 NE - 10 -
15.09.2019 21:00:00 26,0 18,0 11 6 NE - 10 -
15.09.2019 20:00:00 25,2 18,6 8 4 E 1020,8 10 -
15.09.2019 19:00:00 27,0 18,0 11 6 ESE - 10 -
15.09.2019 18:00:00 28,0 16,0 13 7 E - 10 -
15.09.2019 17:00:00 28,0 15,6 16 9 SE 1020,9 10 0,0
15.09.2019 16:00:00 29,0 16,0 18 10 ESE - 10 -
15.09.2019 15:00:00 30,0 13,0 16 9 E - 10 -
15.09.2019 14:00:00 29,4 13,3 16 9 E 1022,1 10 -
15.09.2019 13:00:00 29,0 14,0 18 10 E - 10 -
15.09.2019 12:00:00 29,0 12,0 9 5 SSW - 10 -
15.09.2019 11:00:00 28,5 13,7 8 4 - 1023,7 10 0,0
15.09.2019 10:00:00 26,0 15,0 11 6 WSW - 10 -
15.09.2019 09:00:00 22,0 15,0 13 7 SW - 10 -
15.09.2019 08:00:00 19,2 16,1 8 4 SW 1023,3 10 -
15.09.2019 07:00:00 17,0 16,0 9 5 WSW - 10 -
15.09.2019 06:00:00 17,0 16,0 8 4 SW - 10 -
15.09.2019 05:00:00 18,0 16,0 8 4 W - 10 -
15.09.2019 04:00:00 18,0 16,0 5 3 SW - 10 -
15.09.2019 03:00:00 19,0 17,0 9 5 WSW - 10 -
15.09.2019 02:00:00 20,0 17,0 8 4 SSW - 10 -
15.09.2019 01:00:00 25,0 16,0 9 5 NE - 10 -
15.09.2019 00:00:00 25,0 16,0 11 6 NNE - 10 -
14.09.2019 23:00:00 25,8 15,5 13 7 NNE 1023,1 10 0,0
14.09.2019 22:00:00 26,0 16,0 11 6 NNE - 10 -
14.09.2019 21:00:00 26,0 16,0 16 9 E - 10 -
14.09.2019 20:00:00 26,8 16,2 16 9 ENE 1022,3 10 -
14.09.2019 19:00:00 27,0 17,0 13 7 E - 10 -
14.09.2019 18:00:00 28,0 15,0 18 10 E - 10 -
14.09.2019 17:00:00 28,5 15,5 16 9 E 1021,9 10 0,0
14.09.2019 16:00:00 29,0 11,0 18 10 E - 10 -
14.09.2019 15:00:00 30,0 11,0 18 10 E - 10 -
14.09.2019 14:00:00 29,9 10,7 15 8 E 1023,4 10 -
14.09.2019 13:00:00 29,0 10,0 15 8 SE - 10 -
14.09.2019 12:00:00 30,0 8,0 13 7 E - 10 -
14.09.2019 11:00:00 29,2 13,5 4 2 - 1024,0 10 0,0
14.09.2019 10:00:00 27,0 14,0 13 7 WSW - 10 -
14.09.2019 09:00:00 23,0 16,0 11 6 WSW - 10 -
14.09.2019 08:00:00 19,7 15,9 8 4 WSW 1023,9 10 -
14.09.2019 07:00:00 18,0 15,0 8 4 W - 10 -
14.09.2019 06:00:00 18,0 16,0 8 4 SW - 10 -
14.09.2019 05:00:00 17,5 15,9 9 5 W 1023,3 10 0,0
14.09.2019 04:00:00 19,0 18,0 4 2 - - 10 -
14.09.2019 03:00:00 20,0 19,0 8 4 SW - 10 -
14.09.2019 02:00:00 21,5 18,8 4 2 WSW 1024,1 10 -
14.09.2019 01:00:00 22,0 19,0 8 4 W - 10 -
14.09.2019 00:00:00 24,0 19,0 5 3 W - 10 -
13.09.2019 23:00:00 24,6 18,6 4 2 S 1024,6 10 0,0
13.09.2019 22:00:00 26,0 18,0 8 4 E - 10 -
13.09.2019 21:00:00 27,0 17,0 13 7 NE - 10 -
13.09.2019 20:00:00 27,6 17,1 13 7 NE 1023,4 10 -
13.09.2019 19:00:00 28,0 18,0 13 7 E - 10 -
13.09.2019 18:00:00 29,0 16,0 13 7 E - 10 -
13.09.2019 17:00:00 29,6 12,9 16 9 E 1022,7 10 0,0
13.09.2019 16:00:00 31,0 11,0 15 8 SE - 10 -
13.09.2019 15:00:00 30,0 17,0 21 11 E - 10 -
13.09.2019 14:00:00 29,7 18,4 18 10 E 1023,4 10 -
13.09.2019 13:00:00 30,0 16,0 21 11 ENE - 10 -
13.09.2019 12:00:00 29,0 16,0 15 8 E - 10 -
13.09.2019 11:00:00 29,0 11,6 9 5 WSW 1024,6 10 0,0
13.09.2019 10:00:00 26,0 13,0 13 7 WSW - 10 -
13.09.2019 09:00:00 23,0 15,0 15 8 WSW - 10 -
13.09.2019 08:00:00 20,8 15,1 9 5 W 1024,3 10 -
13.09.2019 07:00:00 18,0 16,0 8 4 W - 10 -
13.09.2019 06:00:00 19,0 15,0 13 7 W - 10 -
13.09.2019 05:00:00 18,7 16,2 11 6 WSW 1023,6 - 0,0
13.09.2019 04:00:00 20,0 18,0 11 6 SW - 10 -
13.09.2019 03:00:00 21,0 20,0 5 3 SW - 10 -
13.09.2019 02:00:00 22,5 20,8 4 2 - 1024,2 10 -
13.09.2019 01:00:00 23,0 21,0 5 3 WNW - 10 -
13.09.2019 00:00:00 24,0 21,0 11 6 W - 10 -
12.09.2019 23:00:00 24,4 21,2 13 7 W 1024,5 10 0,0
12.09.2019 22:00:00 25,0 22,0 13 7 W - 10 -
12.09.2019 21:00:00 26,0 19,0 8 4 E - 10 -
12.09.2019 20:00:00 26,3 20,4 8 4 E 1023,7 10 -
12.09.2019 19:00:00 28,0 20,0 18 10 ENE - 10 -
12.09.2019 18:00:00 28,0 20,0 22 12 E - 10 -
12.09.2019 17:00:00 28,2 20,0 22 12 E 1022,6 10 0,0
12.09.2019 16:00:00 28,0 21,0 22 12 ENE - 10 -
12.09.2019 15:00:00 29,0 20,0 21 11 E - 10 -
12.09.2019 14:00:00 28,8 19,0 16 9 E 1023,6 10 -
12.09.2019 13:00:00 29,0 18,0 18 10 E - 10 -
12.09.2019 12:00:00 30,0 16,0 8 4 - - 10 -
12.09.2019 11:00:00 29,0 16,2 11 6 WSW 1024,1 10 0,0
12.09.2019 10:00:00 28,0 17,0 15 8 SW - 10 -
12.09.2019 09:00:00 24,0 18,0 9 5 WSW - 10 -
12.09.2019 08:00:00 21,0 19,2 15 8 W 1023,3 10 -
12.09.2019 07:00:00 19,0 18,0 8 4 WSW - 10 -
12.09.2019 06:00:00 19,0 19,0 5 3 SSW - 10 -
12.09.2019 05:00:00 19,4 19,1 8 4 SSW 1021,6 10 0,0
12.09.2019 04:00:00 20,0 20,0 5 3 SSW - 10 -
12.09.2019 03:00:00 21,0 20,0 8 4 SW - 10 -
12.09.2019 02:00:00 20,8 20,5 4 2 W 1021,0 10 -
12.09.2019 01:00:00 22,0 20,0 8 4 SW - 10 -
12.09.2019 00:00:00 22,0 21,0 8 4 WSW - 10 -
11.09.2019 23:00:00 23,7 20,5 4 2 W 1020,1 10 0,0
11.09.2019 22:00:00 25,0 20,0 2 1 E - 10 -
11.09.2019 21:00:00 25,0 20,0 5 3 ESE - 10 -
11.09.2019 20:00:00 25,3 20,4 5 3 ESE 1018,8 10 -
11.09.2019 19:00:00 26,0 20,0 13 7 E - 10 -
11.09.2019 18:00:00 27,0 21,0 16 9 E - 10 -
11.09.2019 17:00:00 27,1 21,0 18 10 E 1017,8 10 0,0
11.09.2019 16:00:00 28,0 20,0 18 10 E - 10 -
11.09.2019 15:00:00 28,0 20,0 18 10 E - 10 -
11.09.2019 14:00:00 27,0 19,8 22 12 E 1017,2 10 -
11.09.2019 13:00:00 26,0 20,0 22 12 E - 10 -

tt = temperature
td = dewpoint
ff = wind speed
dd = wind direction
ppp = reduced air pressure
vv = visibility
rr = precipitation

Next stations